Cloud_Cover
100 37 5 5 5 5 5 4 4 2 1 1 0 2 0 2 1 8 0 0 14 13 9 32 8 99 2 0 3 6 3 5 2 0 0 0 1 4 3 0 0 1 35
81 98 57 5 5 0 5 4 1 3 5 5 12 14 0 5 1 9 0 0 0 0 0 5 2 10 0 0 0 0 0 0 0 0 0 0 0 49 2 0 0 4 6
91 82 91 9 6 5 0 5 5 1 1 3 5 6 0 4 1 21 0 2 38 92 0 0 0 0 0 0 0 0 0 0 0 0 0 0 0 1 2 0 0 5 14
47 37 7 5 32 64 27 5 1 4 0 0 5 82 69 6 4 9 0 0 6 8 0 0 0 0 0 0 0 0 0 0 0 0 0 0 0 30 4 0 0 5 10
34 0 2 5 5 5 100 17 5 5 5 4 0 62 5 6 6 5 15 5 1 0 0 0 0 0 0 0 0 0 0 0 0 0 0 0 0 0 2 3 0 0 0
100 26 10 0 5 56 100 100 95 26 5 5 5 5 16 9 5 12 6 5 5 0 0 0 0 0 0 0 0 0 0 0 0 0 0 0 0 0 2 0 0 7 10
58 35 100 100 99 86 100 96 100 100 100 30 12 15 8 30 27 10 5 5 3 0 0 0 0 0 0 0 0 0 0 0 0 0 0 0 0 2 20 0 0 0 0
8 100 100 100 100 100 100 100 100 100 100 100 100 35 28 18 78 83 73 28 26 10 2 0 0 0 0 0 0 0 0 0 0 0 0 0 0 3 8 13 4 0 0
28 52 100 100 100 100 100 100 100 100 100 100 100 100 100 31 27 41 21 21 14 5 5 4 0 0 0 2 0 0 0 0 0 0 0 0 0 2 1 0 7 6 5
92 74 100 100 100 100 100 100 100 100 100 100 100 100 100 100 52 55 79 23 85 19 5 5 5 5 5 3 0 0 0 0 0 0 0 0 0 0 0 0 1 3 10
93 31 100 100 100 100 100 100 100 100 100 100 93 100 100 100 100 98 100 100 20 5 24 29 6 6 5 5 5 4 0 3 0 0 0 0 0 0 0 0 0 46 36
34 68 44 100 100 100 100 100 100 100 100 100 100 100 100 100 100 100 100 100 56 78 17 16 46 5 5 50 8 7 11 5 3 0 2 1 0 0 0 0 0 0 2
0 0 1 2 88 100 100 100 98 100 100 100 100 100 100 100 100 100 100 100 100 44 78 78 72 92 92 86 46 6 95 91 19 6 52 6 5 5 3 1 0 5 3
0 0 5 2 0 34 100 100 100 100 74 74 98 99 100 100 100 100 100 100 100 100 100 100 100 100 49 100 100 89 99 96 92 40 9 5 5 4 0 0 0 5 3
0 0 0 0 0 0 13 100 100 100 100 100 100 100 100 100 100 100 100 100 88 85 76 100 100 100 100 100 99 100 99 95 92 100 60 100 96 99 66 22 49 10 5
0 0 0 10 0 0 0 0 73 100 100 100 100 100 100 100 100 100 100 100 100 95 83 100 100 100 100 100 100 100 100 97 91 25 99 100 100 100 100 100 100 99 86
0 0 5 2 0 0 0 0 0 0 4 65 100 100 100 100 100 100 100 100 100 100 84 100 100 100 100 100 100 100 100 100 99 91 77 70 6 81 100 100 100 100 100
0 0 5 23 76 1 0 0 0 0 0 4 9 19 92 100 100 100 100 100 100 100 92 13 91 100 100 100 100 100 100 66 93 80 18 98 100 98 99 5 6 99 100
4 12 76 38 91 100 2 2 2 2 0 5 1 44 99 68 89 100 100 100 100 100 100 100 74 91 100 100 100 100 100 100 100 100 100 88 60 44 48 100 95 100 100
9 7 83 98 13 78 100 7 5 5 5 5 5 5 42 100 100 100 100 100 100 100 100 100 100 98 87 92 100 100 100 100 100 98 99 86 93 98 99 100 83 100 60
5 33 9 49 43 95 100 99 31 30 64 5 18 5 78 100 99 100 100 100 100 100 100 100 100 100 100 100 100 100 100 100 100 100 89 100 100 66 77 84 12 34 78
5 37 99 74 99 100 100 100 99 86 100 80 11 28 5 82 93 82 99 100 99 100 100 100 100 100 100 100 100 100 100 100 100 100 98 98 99 63 15 61 18 11 13
56 7 89 100 90 100 100 100 100 100 100 100 100 56 19 58 81 5 47 100 100 100 100 100 100 100 100 100 100 100 100 88 100 100 100 100 96 79 95 100 100 100 75
100 96 80 95 100 80 100 100 100 100 100 100 100 100 79 95 65 7 5 6 90 99 100 100 100 100 100 100 100 100 100 100 89 90 99 100 100 100 100 100 99 100 100
100 100 79 100 100 100 100 100 100 100 100 100 100 100 100 100 95 100 24 6 5 2 59 67 67 60 97 100 100 100 100 100 100 100 100 100 100 100 100 100 100 100 100
88 100 100 100 100 100 100 100 100 100 100 100 100 100 100 100 100 89 100 94 13 6 5 5 6 32 76 46 26 27 65 99 100 100 100 100 100 59 94 100 100 100 100